Starlink 30822

operational
NORAD ID: 58193 Int'l Des: 2023-167 Owner: SPXS Country: US Constellation: starlink
LEOCIRCULAR

About Starlink 30822

Description loading...

Live Position

Loading 3D Globe...

Upcoming Passes

Altitude History

Altitude vs Time

uPlot chart will show altitude changes over time

Two-Line Element Set

1 58193U 23167U 25258.31297141 -.00000065 00000-0 10282-4 0 9994
2 58193 43.0051 18.9087 0001655 277.0204 83.0450 15.02536695104572
Epoch: Sep 15, 2025 • Age: 6 hours

Current Status

Altitude 559.1 km
Velocity 7.58 km/s
Sub-Earth Point -3.19°S, 171.2°E
Launch Date Oct 30, 2023
Age 1.8 years
Type internet

Technical Details

Classification Payload
Mass 730.00 kg
Dry Mass 700.00 kg
Total Mass 730.00 kg
Length 0.30 m
Diameter 4.10 m
Span 29.00 m
Shape Box + pan
Manufacturer SPXS
Bus Type Starlink V2M
Phase Status In Orbit
Owner/State SPXS/US

Large Constellations

Loading constellations...